QPF
0.00 0.00 0.00 0.00 0.01 0.01 0.01 0.01 0.01 0.02 0.02 0.01 0.01 0.01 0.00 0.00 0.01 0.01 0.01 0.01 0.02 0.01 0.01 0.01 0.01 0.01 0.01 0.02 0.02 0.01 0.01 0.01 0.02 0.02 0.02 0.03 0.04 0.05 0.05 0.05 0.05 0.04 0.03 0.03
0.00 0.00 0.00 0.01 0.01 0.01 0.01 0.01 0.01 0.01 0.01 0.01 0.01 0.00 0.00 0.00 0.00 0.01 0.01 0.01 0.01 0.01 0.01 0.00 0.01 0.01 0.01 0.01 0.01 0.01 0.01 0.01 0.02 0.02 0.04 0.05 0.04 0.05 0.04 0.03 0.02 0.02 0.02 0.02
0.01 0.01 0.01 0.02 0.02 0.01 0.01 0.01 0.01 0.01 0.01 0.00 0.00 0.00 0.00 0.00 0.00 0.01 0.01 0.01 0.01 0.01 0.01 0.01 0.01 0.01 0.01 0.01 0.01 0.01 0.01 0.01 0.02 0.04 0.04 0.03 0.03 0.03 0.02 0.02 0.02 0.01 0.01 0.01
0.01 0.01 0.01 0.01 0.01 0.01 0.01 0.00 0.00 0.00 0.01 0.00 0.00 0.00 0.00 0.00 0.01 0.01 0.01 0.01 0.01 0.01 0.01 0.01 0.01 0.01 0.01 0.01 0.01 0.02 0.03 0.04 0.06 0.04 0.02 0.02 0.02 0.01 0.01 0.01 0.01 0.01 0.01 0.01
0.01 0.01 0.01 0.01 0.00 0.00 0.01 0.01 0.00 0.00 0.01 0.01 0.00 0.00 0.00 0.00 0.01 0.00 0.00 0.00 0.01 0.01 0.01 0.01 0.01 0.01 0.02 0.03 0.03 0.03 0.04 0.04 0.04 0.02 0.01 0.01 0.01 0.01 0.01 0.01 0.01 0.00 0.00 0.00
0.01 0.01 0.01 0.00 0.00 0.00 0.01 0.03 0.01 0.01 0.01 0.00 0.00 0.00 0.00 0.00 0.00 0.01 0.01 0.01 0.01 0.01 0.01 0.01 0.02 0.02 0.03 0.03 0.02 0.02 0.02 0.02 0.01 0.00 0.00 0.01 0.01 0.01 0.01 0.01 0.01 0.00 0.00 0.00
0.00 0.01 0.01 0.00 0.00 0.00 0.02 0.03 0.01 0.02 0.01 0.00 0.00 0.00 0.00 0.00 0.00 0.00 0.00 0.01 0.00 0.01 0.01 0.01 0.02 0.01 0.01 0.01 0.01 0.00 0.00 0.00 0.00 0.00 0.00 0.01 0.01 0.01 0.01 0.01 0.01 0.01 0.01 0.01
0.01 0.02 0.01 0.00 0.00 0.01 0.02 0.01 0.01 0.02 0.01 0.00 0.00 0.00 0.00 0.00 0.00 0.01 0.01 0.01 0.01 0.01 0.01 0.01 0.01 0.01 0.01 0.01 0.00 0.00 0.00 0.01 0.00 0.00 0.00 0.00 0.01 0.01 0.01 0.01 0.01 0.01 0.01 0.01
0.03 0.03 0.02 0.01 0.01 0.01 0.01 0.01 0.01 0.01 0.01 0.01 0.00 0.00 0.00 0.00 0.00 0.00 0.01 0.01 0.01 0.01 0.01 0.01 0.01 0.01 0.01 0.01 0.00 0.00 0.00 0.01 0.00 0.00 0.00 0.00 0.00 0.00 0.00 0.01 0.01 0.01 0.01 0.01
0.03 0.04 0.03 0.01 0.02 0.03 0.03 0.02 0.01 0.01 0.01 0.01 0.00 0.00 0.00 0.00 0.00 0.00 0.00 0.00 0.00 0.01 0.01 0.01 0.01 0.01 0.01 0.01 0.01 0.00 0.00 0.00 0.00 0.00 0.00 0.00 0.00 0.00 0.00 0.00 0.00 0.00 0.00 0.00
0.03 0.03 0.02 0.01 0.01 0.01 0.02 0.03 0.03 0.02 0.01 0.01 0.00 0.00 0.00 0.00 0.00 0.00 0.00 0.00 0.01 0.01 0.01 0.01 0.01 0.01 0.01 0.01 0.01 0.00 0.00 0.00 0.00 0.00 0.00 0.00 0.00 0.00 0.00 0.00 0.00 0.00 0.00 0.00
0.05 0.04 0.03 0.02 0.01 0.01 0.01 0.01 0.01 0.01 0.01 0.01 0.01 0.00 0.00 0.01 0.00 0.00 0.00 0.00 0.01 0.01 0.01 0.01 0.01 0.01 0.01 0.01 0.01 0.00 0.00 0.00 0.00 0.00 0.00 0.00 0.00 0.00 0.00 0.00 0.00 0.00 0.00 0.00
0.04 0.04 0.03 0.02 0.01 0.01 0.00 0.00 0.00 0.01 0.01 0.01 0.01 0.00 0.00 0.01 0.00 0.00 0.00 0.00 0.00 0.00 0.00 0.00 0.01 0.01 0.01 0.01 0.01 0.01 0.01 0.01 0.00 0.00 0.00 0.00 0.01 0.01 0.00 0.00 0.01 0.01 0.00 0.00
0.03 0.03 0.03 0.02 0.02 0.01 0.01 0.01 0.01 0.01 0.01 0.01 0.01 0.01 0.01 0.01 0.00 0.00 0.00 0.00 0.00 0.00 0.00 0.00 0.00 0.00 0.00 0.00 0.00 0.01 0.01 0.01 0.01 0.01 0.01 0.01 0.01 0.01 0.01 0.01 0.01 0.01 0.00 0.00
0.01 0.02 0.03 0.02 0.02 0.01 0.01 0.01 0.01 0.01 0.01 0.01 0.01 0.01 0.01 0.01 0.01 0.00 0.00 0.00 0.00 0.00 0.00 0.00 0.00 0.00 0.00 0.00 0.00 0.00 0.00 0.01 0.00 0.00 0.01 0.01 0.01 0.01 0.00 0.00 0.01 0.00 0.00 0.00
0.01 0.01 0.02 0.02 0.02 0.02 0.02 0.01 0.01 0.01 0.01 0.01 0.01 0.01 0.02 0.02 0.01 0.01 0.01 0.01 0.01 0.01 0.01 0.01 0.01 0.00 0.00 0.00 0.00 0.00 0.00 0.00 0.00 0.00 0.00 0.00 0.00 0.00 0.00 0.00 0.00 0.00 0.00 0.01
0.02 0.02 0.02 0.02 0.02 0.02 0.02 0.02 0.02 0.01 0.01 0.02 0.02 0.01 0.02 0.02 0.02 0.01 0.01 0.01 0.01 0.01 0.01 0.01 0.01 0.00 0.00 0.00 0.00 0.00 0.00 0.00 0.00 0.00 0.00 0.00 0.00 0.00 0.00 0.00 0.00 0.00 0.00 0.01
0.02 0.02 0.03 0.03 0.03 0.02 0.01 0.01 0.01 0.01 0.01 0.02 0.03 0.02 0.02 0.02 0.02 0.02 0.02 0.02 0.01 0.01 0.01 0.01 0.01 0.01 0.00 0.00 0.00 0.00 0.00 0.00 0.00 0.00 0.00 0.00 0.00 0.00 0.00 0.00 0.00 0.00 0.00 0.01
0.03 0.04 0.03 0.02 0.02 0.01 0.01 0.00 0.00 0.01 0.02 0.02 0.03 0.03 0.03 0.03 0.03 0.02 0.03 0.03 0.02 0.02 0.02 0.01 0.01 0.01 0.01 0.00 0.00 0.00 0.01 0.01 0.01 0.01 0.00 0.00 0.00 0.00 0.00 0.00 0.00 0.00 0.00 0.00
0.03 0.04 0.04 0.02 0.01 0.01 0.01 0.01 0.01 0.01 0.02 0.02 0.03 0.03 0.03 0.03 0.03 0.03 0.03 0.03 0.03 0.02 0.02 0.02 0.02 0.01 0.01 0.01 0.00 0.00 0.00 0.01 0.01 0.01 0.01 0.00 0.00 0.00 0.00 0.00 0.00 0.00 0.01 0.01
0.02 0.02 0.03 0.03 0.02 0.01 0.01 0.01 0.01 0.01 0.02 0.02 0.03 0.03 0.03 0.03 0.03 0.03 0.03 0.03 0.03 0.03 0.03 0.03 0.02 0.02 0.01 0.01 0.01 0.01 0.00 0.00 0.00 0.00 0.00 0.00 0.00 0.00 0.00 0.00 0.01 0.01 0.01 0.01
0.02 0.02 0.01 0.02 0.03 0.02 0.02 0.01 0.01 0.01 0.02 0.03 0.02 0.03 0.03 0.02 0.02 0.02 0.02 0.03 0.03 0.03 0.02 0.02 0.03 0.03 0.02 0.02 0.01 0.01 0.01 0.01 0.01 0.01 0.01 0.01 0.01 0.01 0.01 0.01 0.02 0.01 0.02 0.01
0.02 0.02 0.02 0.01 0.01 0.02 0.02 0.02 0.02 0.02 0.02 0.02 0.02 0.01 0.01 0.02 0.02 0.03 0.03 0.02 0.02 0.02 0.02 0.02 0.03 0.03 0.03 0.02 0.02 0.01 0.01 0.01 0.01 0.01 0.01 0.01 0.01 0.02 0.02 0.02 0.02 0.02 0.02 0.02
0.01 0.01 0.02 0.02 0.01 0.01 0.02 0.02 0.02 0.02 0.02 0.02 0.02 0.01 0.01 0.01 0.01 0.02 0.03 0.03 0.02 0.02 0.01 0.02 0.02 0.03 0.02 0.01 0.01 0.01 0.01 0.01 0.01 0.01 0.01 0.01 0.02 0.02 0.02 0.02 0.02 0.02 0.02 0.02
0.02 0.02 0.02 0.02 0.02 0.02 0.02 0.02 0.02 0.02 0.02 0.02 0.01 0.01 0.01 0.01 0.01 0.01 0.02 0.02 0.02 0.02 0.02 0.02 0.02 0.02 0.02 0.01 0.01 0.01 0.01 0.01 0.01 0.01 0.01 0.02 0.02 0.02 0.02 0.02 0.02 0.02 0.02 0.03
0.02 0.02 0.01 0.01 0.01 0.01 0.01 0.02 0.02 0.02 0.02 0.01 0.01 0.01 0.01 0.01 0.01 0.01 0.01 0.01 0.01 0.01 0.02 0.03 0.03 0.02 0.01 0.01 0.01 0.01 0.01 0.01 0.01 0.01 0.01 0.01 0.02 0.02 0.02 0.03 0.03 0.03 0.04 0.05
0.02 0.02 0.01 0.01 0.01 0.01 0.01 0.01 0.01 0.01 0.01 0.01 0.01 0.01 0.01 0.01 0.01 0.01 0.01 0.01 0.01 0.01 0.02 0.03 0.03 0.03 0.02 0.01 0.01 0.01 0.01 0.01 0.01 0.01 0.01 0.02 0.02 0.03 0.03 0.04 0.04 0.05 0.06 0.07
MSLP
1004.02 1004.03 1004.12 1004.32 1004.63 1005.03 1005.48 1005.96 1006.41 1006.79 1007.07 1007.23 1007.25 1007.16 1006.97 1006.73 1006.48 1006.26 1006.10 1006.04 1006.07 1006.21 1006.45 1006.76 1007.13 1007.52 1007.91 1008.29 1008.64 1008.93 1009.16 1009.33 1009.43 1009.45 1009.40 1009.28 1009.11 1008.88 1008.62 1008.35 1008.08 1007.83 1007.61 1007.43
1004.30 1004.33 1004.42 1004.61 1004.89 1005.28 1005.74 1006.25 1006.76 1007.22 1007.61 1007.88 1008.02 1008.03 1007.93 1007.75 1007.53 1007.30 1007.11 1006.99 1006.95 1007.00 1007.14 1007.35 1007.62 1007.92 1008.23 1008.53 1008.80 1009.03 1009.21 1009.34 1009.41 1009.42 1009.35 1009.23 1009.04 1008.81 1008.54 1008.25 1007.96 1007.67 1007.42 1007.20
1004.72 1004.79 1004.90 1005.09 1005.38 1005.77 1006.24 1006.76 1007.30 1007.82 1008.27 1008.61 1008.83 1008.91 1008.88 1008.75 1008.56 1008.34 1008.15 1007.99 1007.91 1007.90 1007.97 1008.09 1008.26 1008.45 1008.66 1008.85 1009.03 1009.17 1009.28 1009.35 1009.38 1009.35 1009.26 1009.12 1008.92 1008.67 1008.38 1008.06 1007.73 1007.41 1007.11 1006.84
1005.23 1005.35 1005.50 1005.72 1006.02 1006.41 1006.88 1007.41 1007.95 1008.48 1008.94 1009.30 1009.55 1009.67 1009.68 1009.59 1009.43 1009.25 1009.07 1008.91 1008.81 1008.75 1008.75 1008.79 1008.86 1008.95 1009.03 1009.11 1009.17 1009.22 1009.25 1009.25 1009.22 1009.16 1009.05 1008.90 1008.68 1008.42 1008.11 1007.76 1007.39 1007.02 1006.67 1006.35
1005.80 1005.96 1006.16 1006.41 1006.73 1007.12 1007.58 1008.08 1008.59 1009.08 1009.52 1009.86 1010.10 1010.22 1010.25 1010.18 1010.06 1009.90 1009.74 1009.59 1009.47 1009.38 1009.32 1009.28 1009.24 1009.21 1009.18 1009.14 1009.09 1009.04 1008.99 1008.93 1008.87 1008.79 1008.67 1008.51 1008.31 1008.04 1007.72 1007.35 1006.96 1006.55 1006.16 1005.80
1006.37 1006.58 1006.82 1007.10 1007.43 1007.82 1008.25 1008.70 1009.16 1009.58 1009.95 1010.24 1010.44 1010.54 1010.55 1010.49 1010.38 1010.24 1010.10 1009.95 1009.81 1009.68 1009.55 1009.42 1009.28 1009.13 1008.98 1008.82 1008.68 1008.55 1008.45 1008.36 1008.28 1008.21 1008.11 1007.98 1007.79 1007.55 1007.24 1006.88 1006.48 1006.06 1005.65 1005.27
1006.97 1007.21 1007.48 1007.77 1008.11 1008.47 1008.86 1009.25 1009.63 1009.97 1010.25 1010.47 1010.59 1010.64 1010.63 1010.55 1010.44 1010.30 1010.14 1009.98 1009.80 1009.61 1009.40 1009.17 1008.93 1008.67 1008.40 1008.16 1007.94 1007.76 1007.63 1007.54 1007.49 1007.45 1007.41 1007.33 1007.19 1006.99 1006.72 1006.39 1006.01 1005.60 1005.20 1004.83
1007.59 1007.86 1008.14 1008.45 1008.77 1009.10 1009.44 1009.76 1010.05 1010.29 1010.48 1010.60 1010.65 1010.63 1010.57 1010.46 1010.31 1010.15 1009.96 1009.75 1009.51 1009.24 1008.94 1008.61 1008.25 1007.89 1007.54 1007.22 1006.95 1006.75 1006.63 1006.57 1006.57 1006.60 1006.62 1006.62 1006.56 1006.42 1006.20 1005.92 1005.58 1005.21 1004.84 1004.49
1008.30 1008.57 1008.86 1009.15 1009.45 1009.74 1010.02 1010.26 1010.47 1010.62 1010.71 1010.73 1010.70 1010.61 1010.49 1010.32 1010.13 1009.92 1009.67 1009.39 1009.08 1008.72 1008.31 1007.87 1007.41 1006.96 1006.53 1006.16 1005.87 1005.67 1005.58 1005.58 1005.64 1005.74 1005.85 1005.92 1005.93 1005.87 1005.71 1005.48 1005.19 1004.87 1004.54 1004.23
1009.12 1009.38 1009.65 1009.92 1010.18 1010.42 1010.64 1010.81 1010.93 1010.99 1010.99 1010.93 1010.82 1010.67 1010.48 1010.26 1010.01 1009.73 1009.42 1009.06 1008.65 1008.19 1007.68 1007.14 1006.59 1006.06 1005.57 1005.17 1004.87 1004.70 1004.64 1004.69 1004.81 1004.98 1005.16 1005.29 1005.36 1005.34 1005.24 1005.05 1004.81 1004.52 1004.24 1003.97
1010.07 1010.30 1010.54 1010.76 1010.97 1011.15 1011.30 1011.39 1011.43 1011.42 1011.35 1011.22 1011.05 1010.84 1010.59 1010.32 1010.02 1009.67 1009.29 1008.85 1008.35 1007.80 1007.20 1006.58 1005.96 1005.36 1004.84 1004.42 1004.12 1003.96 1003.93 1004.01 1004.17 1004.38 1004.58 1004.74 1004.84 1004.84 1004.75 1004.59 1004.37 1004.11 1003.85 1003.61
1011.12 1011.30 1011.48 1011.64 1011.78 1011.88 1011.95 1011.97 1011.95 1011.86 1011.73 1011.56 1011.34 1011.08 1010.80 1010.49 1010.13 1009.74 1009.30 1008.80 1008.23 1007.61 1006.95 1006.27 1005.60 1004.97 1004.43 1003.99 1003.69 1003.53 1003.50 1003.58 1003.74 1003.93 1004.12 1004.26 1004.33 1004.32 1004.21 1004.04 1003.82 1003.57 1003.32 1003.10
1012.19 1012.30 1012.40 1012.47 1012.52 1012.54 1012.52 1012.47 1012.37 1012.24 1012.06 1011.84 1011.59 1011.31 1011.01 1010.67 1010.29 1009.86 1009.39 1008.85 1008.25 1007.59 1006.90 1006.20 1005.51 1004.87 1004.31 1003.87 1003.56 1003.38 1003.33 1003.37 1003.48 1003.61 1003.73 1003.81 1003.81 1003.74 1003.59 1003.38 1003.13 1002.88 1002.63 1002.42
1013.17 1013.19 1013.18 1013.15 1013.09 1013.02 1012.92 1012.79 1012.63 1012.44 1012.22 1011.98 1011.71 1011.42 1011.10 1010.75 1010.36 1009.93 1009.45 1008.90 1008.30 1007.64 1006.95 1006.26 1005.58 1004.95 1004.40 1003.95 1003.62 1003.41 1003.30 1003.28 1003.30 1003.34 1003.36 1003.33 1003.24 1003.08 1002.87 1002.61 1002.34 1002.07 1001.83 1001.61
1013.95 1013.86 1013.74 1013.59 1013.43 1013.25 1013.06 1012.86 1012.64 1012.41 1012.16 1011.89 1011.61 1011.31 1010.99 1010.64 1010.26 1009.83 1009.36 1008.83 1008.25 1007.62 1006.97 1006.31 1005.67 1005.07 1004.53 1004.09 1003.74 1003.48 1003.31 1003.19 1003.11 1003.03 1002.93 1002.79 1002.60 1002.36 1002.09 1001.79 1001.50 1001.23 1001.00 1000.80
1014.44 1014.24 1014.01 1013.75 1013.49 1013.22 1012.95 1012.68 1012.41 1012.13 1011.86 1011.57 1011.27 1010.96 1010.64 1010.29 1009.91 1009.50 1009.04 1008.55 1008.01 1007.43 1006.83 1006.23 1005.63 1005.08 1004.57 1004.14 1003.77 1003.47 1003.23 1003.02 1002.84 1002.65 1002.44 1002.20 1001.92 1001.63 1001.31 1001.00 1000.71 1000.46 1000.26 1000.10
1014.61 1014.31 1013.98 1013.63 1013.28 1012.94 1012.61 1012.29 1011.98 1011.67 1011.37 1011.06 1010.74 1010.42 1010.08 1009.72 1009.34 1008.93 1008.50 1008.03 1007.53 1007.01 1006.47 1005.93 1005.40 1004.90 1004.43 1004.01 1003.63 1003.30 1003.00 1002.72 1002.45 1002.18 1001.89 1001.58 1001.26 1000.93 1000.62 1000.32 1000.07 999.87 999.72 999.62
1014.48 1014.10 1013.70 1013.29 1012.89 1012.51 1012.14 1011.79 1011.46 1011.12 1010.79 1010.46 1010.12 1009.76 1009.40 1009.02 1008.62 1008.21 1007.78 1007.33 1006.87 1006.39 1005.91 1005.44 1004.97 1004.52 1004.10 1003.70 1003.33 1002.98 1002.64 1002.31 1001.99 1001.66 1001.33 1000.99 1000.67 1000.35 1000.07 999.84 999.65 999.52 999.45 999.42
1014.12 1013.70 1013.27 1012.83 1012.42 1012.03 1011.66 1011.30 1010.95 1010.61 1010.26 1009.90 1009.52 1009.13 1008.72 1008.30 1007.87 1007.43 1006.99 1006.55 1006.11 1005.68 1005.25 1004.83 1004.42 1004.03 1003.65 1003.28 1002.92 1002.57 1002.22 1001.88 1001.53 1001.19 1000.85 1000.53 1000.23 999.97 999.75 999.59 999.49 999.45 999.46 999.51
1013.66 1013.23 1012.79 1012.37 1011.98 1011.60 1011.25 1010.91 1010.56 1010.21 1009.85 1009.46 1009.04 1008.61 1008.15 1007.68 1007.21 1006.74 1006.28 1005.84 1005.41 1005.01 1004.62 1004.25 1003.89 1003.55 1003.21 1002.88 1002.55 1002.21 1001.87 1001.53 1001.19 1000.85 1000.54 1000.25 1000.01 999.81 999.67 999.60 999.58 999.62 999.70 999.81
1013.20 1012.78 1012.38 1011.99 1011.63 1011.30 1010.97 1010.65 1010.32 1009.97 1009.59 1009.18 1008.73 1008.25 1007.75 1007.23 1006.72 1006.23 1005.75 1005.30 1004.89 1004.51 1004.16 1003.84 1003.53 1003.23 1002.94 1002.64 1002.34 1002.02 1001.70 1001.37 1001.05 1000.74 1000.46 1000.22 1000.03 999.90 999.83 999.82 999.87 999.97 1000.10 1000.23
1012.83 1012.45 1012.08 1011.74 1011.42 1011.12 1010.83 1010.53 1010.21 1009.86 1009.46 1009.03 1008.55 1008.04 1007.50 1006.96 1006.43 1005.92 1005.44 1005.01 1004.62 1004.27 1003.96 1003.69 1003.43 1003.18 1002.93 1002.68 1002.40 1002.11 1001.81 1001.50 1001.20 1000.91 1000.66 1000.45 1000.30 1000.22 1000.19 1000.22 1000.31 1000.42 1000.56 1000.69
1012.60 1012.25 1011.92 1011.61 1011.32 1011.05 1010.77 1010.47 1010.15 1009.79 1009.39 1008.94 1008.44 1007.92 1007.37 1006.83 1006.30 1005.81 1005.36 1004.96 1004.62 1004.32 1004.07 1003.85 1003.65 1003.45 1003.25 1003.02 1002.78 1002.50 1002.22 1001.92 1001.63 1001.36 1001.12 1000.93 1000.80 1000.72 1000.71 1000.75 1000.83 1000.93 1001.04 1001.13
1012.53 1012.20 1011.88 1011.58 1011.29 1011.01 1010.72 1010.41 1010.08 1009.70 1009.28 1008.83 1008.33 1007.82 1007.29 1006.78 1006.29 1005.85 1005.46 1005.13 1004.86 1004.64 1004.46 1004.31 1004.17 1004.02 1003.86 1003.67 1003.44 1003.18 1002.90 1002.61 1002.32 1002.04 1001.80 1001.61 1001.46 1001.38 1001.34 1001.35 1001.39 1001.45 1001.50 1001.53
1012.59 1012.25 1011.92 1011.59 1011.27 1010.96 1010.63 1010.29 1009.92 1009.53 1009.10 1008.64 1008.17 1007.69 1007.21 1006.76 1006.35 1006.00 1005.70 1005.46 1005.28 1005.15 1005.06 1004.98 1004.91 1004.82 1004.69 1004.53 1004.32 1004.07 1003.79 1003.49 1003.18 1002.89 1002.63 1002.41 1002.24 1002.12 1002.04 1002.00 1001.99 1001.98 1001.95 1001.91
1012.74 1012.37 1011.99 1011.61 1011.24 1010.86 1010.48 1010.08 1009.68 1009.26 1008.83 1008.39 1007.95 1007.53 1007.13 1006.78 1006.47 1006.22 1006.03 1005.91 1005.84 1005.81 1005.80 1005.80 1005.79 1005.74 1005.65 1005.50 1005.31 1005.06 1004.77 1004.45 1004.13 1003.82 1003.53 1003.28 1003.07 1002.90 1002.77 1002.68 1002.60 1002.52 1002.42 1002.30
1012.93 1012.51 1012.07 1011.63 1011.17 1010.72 1010.28 1009.83 1009.39 1008.96 1008.53 1008.13 1007.75 1007.40 1007.10 1006.85 1006.66 1006.53 1006.46 1006.45 1006.48 1006.54 1006.62 1006.68 1006.71 1006.70 1006.62 1006.49 1006.29 1006.04 1005.74 1005.41 1005.07 1004.73 1004.42 1004.13 1003.89 1003.68 1003.51 1003.36 1003.22 1003.08 1002.92 1002.74
Thickness
5743 5748 5747 5745 5745 5746 5742 5742 5736 5736 5734 5730 5729 5727 5724 5721 5716 5712 5709 5706 5702 5698 5695 5692 5688 5684 5681 5677 5674 5671 5668 5664 5660 5657 5654 5650 5647 5644 5641 5639 5636 5633 5630 5627
5731 5739 5739 5735 5739 5741 5740 5740 5736 5733 5728 5732 5730 5727 5722 5717 5712 5708 5705 5702 5699 5696 5693 5689 5686 5683 5679 5676 5673 5670 5667 5664 5661 5657 5653 5649 5646 5643 5640 5637 5635 5632 5629 5626
5722 5732 5728 5722 5734 5735 5734 5735 5732 5726 5726 5727 5721 5718 5716 5714 5710 5706 5704 5701 5697 5694 5691 5688 5684 5681 5677 5674 5671 5668 5665 5662 5659 5656 5652 5649 5646 5643 5639 5636 5633 5630 5628 5625
5717 5714 5701 5726 5740 5738 5731 5729 5730 5726 5724 5722 5718 5717 5716 5714 5709 5705 5702 5699 5696 5693 5690 5687 5683 5680 5676 5673 5670 5667 5663 5660 5658 5655 5651 5648 5645 5641 5638 5635 5632 5629 5627 5624
5710 5708 5712 5720 5728 5729 5721 5717 5722 5718 5716 5716 5716 5714 5712 5711 5708 5705 5702 5698 5695 5692 5689 5684 5681 5677 5674 5671 5668 5665 5662 5659 5656 5654 5651 5647 5644 5640 5637 5634 5631 5629 5627 5624
5702 5697 5699 5714 5725 5729 5719 5706 5714 5712 5708 5708 5706 5704 5705 5706 5704 5702 5699 5696 5693 5690 5687 5682 5678 5675 5671 5668 5666 5663 5661 5658 5655 5653 5649 5646 5643 5640 5637 5634 5631 5629 5626 5623
5693 5693 5704 5711 5717 5716 5698 5699 5706 5707 5704 5702 5699 5699 5700 5701 5699 5697 5695 5692 5690 5687 5683 5680 5676 5672 5669 5666 5664 5663 5661 5658 5654 5651 5648 5645 5642 5639 5636 5634 5631 5628 5626 5623
5687 5684 5689 5702 5703 5697 5694 5701 5700 5699 5698 5695 5694 5695 5694 5694 5693 5692 5690 5688 5686 5683 5680 5677 5674 5670 5667 5664 5663 5662 5659 5656 5653 5649 5648 5646 5641 5638 5635 5632 5631 5628 5625 5623
5682 5683 5686 5691 5691 5692 5693 5690 5690 5690 5690 5689 5687 5687 5687 5687 5686 5686 5685 5683 5681 5679 5676 5674 5671 5669 5665 5664 5662 5660 5657 5654 5651 5648 5646 5643 5640 5637 5635 5632 5631 5629 5627 5623
5669 5675 5678 5681 5682 5684 5685 5683 5684 5684 5683 5684 5682 5682 5681 5680 5680 5679 5679 5678 5677 5675 5672 5669 5668 5667 5665 5663 5660 5657 5654 5652 5650 5647 5644 5641 5639 5638 5635 5633 5630 5628 5625 5622
5659 5664 5666 5669 5671 5673 5675 5676 5675 5676 5677 5677 5677 5676 5675 5674 5674 5674 5674 5673 5673 5670 5668 5666 5665 5663 5662 5660 5657 5654 5651 5650 5649 5647 5644 5639 5637 5634 5633 5629 5626 5622 5622 5620
5650 5653 5652 5656 5661 5664 5664 5665 5667 5667 5668 5670 5670 5669 5669 5669 5669 5668 5668 5668 5667 5666 5665 5663 5661 5660 5659 5657 5655 5651 5649 5647 5648 5646 5643 5641 5638 5634 5628 5625 5620 5616 5612 5610
5642 5646 5647 5651 5653 5655 5656 5659 5660 5661 5661 5661 5663 5663 5663 5662 5662 5662 5662 5662 5661 5661 5660 5659 5657 5656 5655 5654 5652 5649 5646 5645 5645 5644 5642 5640 5638 5635 5632 5625 5618 5614 5611 5607
5633 5634 5635 5640 5643 5647 5649 5651 5652 5653 5653 5654 5655 5656 5656 5656 5657 5656 5656 5656 5657 5656 5655 5654 5653 5651 5651 5650 5647 5645 5644 5642 5641 5641 5640 5638 5636 5634 5632 5629 5625 5621 5613 5606
5623 5626 5627 5631 5635 5638 5640 5642 5642 5642 5643 5645 5646 5647 5648 5648 5649 5650 5650 5651 5651 5650 5650 5649 5648 5647 5647 5645 5643 5641 5641 5641 5639 5639 5638 5636 5634 5633 5631 5627 5625 5622 5618 5612
5613 5617 5619 5620 5623 5627 5629 5630 5632 5632 5634 5635 5637 5638 5640 5642 5643 5644 5644 5645 5644 5644 5643 5643 5642 5642 5642 5640 5638 5637 5636 5633 5632 5635 5635 5634 5632 5630 5628 5625 5623 5620 5617 5615
5602 5604 5606 5608 5611 5615 5618 5621 5623 5624 5625 5627 5629 5631 5632 5634 5635 5635 5636 5638 5637 5637 5637 5637 5637 5637 5637 5635 5634 5634 5634 5633 5626 5630 5632 5631 5629 5627 5624 5622 5620 5618 5616 5612
5595 5597 5598 5599 5602 5606 5609 5613 5616 5616 5618 5621 5623 5623 5624 5626 5627 5628 5629 5630 5629 5629 5630 5630 5630 5631 5630 5630 5629 5631 5631 5630 5629 5629 5628 5626 5624 5623 5621 5619 5617 5615 5613 5610
5587 5589 5591 5593 5596 5599 5602 5606 5609 5610 5612 5614 5614 5615 5616 5618 5620 5621 5621 5622 5621 5622 5623 5624 5621 5622 5623 5624 5623 5624 5626 5626 5625 5625 5623 5619 5618 5619 5618 5616 5614 5613 5612 5609
5580 5582 5584 5586 5589 5592 5595 5599 5601 5603 5605 5606 5606 5606 5607 5610 5611 5612 5613 5614 5616 5618 5617 5616 5616 5617 5618 5619 5616 5621 5622 5622 5622 5621 5619 5618 5617 5615 5614 5613 5612 5610 5608 5606
5570 5574 5577 5579 5582 5585 5588 5590 5592 5594 5596 5598 5598 5599 5600 5602 5604 5605 5605 5607 5608 5609 5609 5607 5610 5612 5613 5613 5609 5616 5618 5617 5617 5616 5615 5613 5613 5612 5611 5609 5608 5607 5605 5604
5561 5565 5569 5572 5575 5578 5581 5583 5585 5587 5588 5589 5590 5592 5592 5593 5595 5597 5598 5600 5601 5599 5602 5605 5607 5605 5606 5604 5609 5611 5612 5612 5611 5611 5610 5609 5608 5607 5607 5606 5605 5604 5603 5601
5554 5557 5561 5564 5567 5570 5573 5575 5578 5580 5581 5582 5583 5584 5585 5586 5589 5590 5591 5593 5595 5592 5596 5599 5597 5595 5594 5599 5604 5606 5607 5606 5606 5606 5606 5605 5604 5603 5603 5602 5601 5601 5599 5597
5547 5549 5553 5556 5559 5562 5564 5567 5570 5572 5574 5576 5578 5579 5580 5581 5584 5587 5588 5585 5585 5585 5590 5590 5587 5587 5587 5595 5599 5601 5602 5602 5602 5602 5601 5601 5600 5599 5599 5599 5598 5598 5596 5594
5539 5542 5545 5547 5551 5555 5557 5560 5562 5564 5566 5569 5571 5573 5575 5577 5579 5581 5581 5581 5580 5580 5585 5584 5582 5582 5586 5592 5594 5596 5596 5597 5597 5597 5596 5595 5595 5595 5595 5594 5594 5593 5593 5592
5534 5537 5539 5541 5544 5547 5551 5554 5556 5559 5561 5563 5565 5567 5569 5570 5573 5575 5575 5576 5577 5576 5579 5581 5582 5581 5585 5588 5590 5591 5592 5592 5591 5591 5591 5591 5590 5591 5590 5590 5590 5590 5589 5588
5529 5532 5534 5537 5540 5543 5546 5549 5551 5552 5554 5556 5558 5560 5562 5564 5566 5568 5569 5571 5571 5573 5575 5577 5578 5580 5582 5583 5585 5585 5587 5588 5588 5587 5587 5587 5586 5586 5586 5586 5586 5586 5586 5586